Theta_e
315 314 314 313 312 311 310 310 309 310 309 309 310 310 310 312 315 316 316 315 316 316 316 315 315 316 315 315 314 315 315 315 314 313 307 300 296 296 295 296 296 297 298 298 297 294 292 292 292 292 292 291 291 290 290 289 289 289 289 289 289 289 289 288 288 288 287 287 288 288 288 288 288 287 287 287 287 287 287 287 286 286 286 286 285
316 315 314 313 312 311 310 310 309 310 309 309 309 310 311 312 314 315 314 315 316 315 314 314 314 315 315 315 315 315 315 314 314 312 305 298 296 295 295 295 295 296 296 295 294 292 292 292 292 291 291 290 290 289 289 289 289 289 289 289 289 288 288 288 288 288 287 287 287 288 288 288 288 288 288 287 287 287 287 287 287 286 286 286 285
316 315 314 314 312 311 310 310 309 309 309 309 309 310 311 313 313 313 314 315 315 314 313 313 313 314 315 315 314 313 314 313 313 311 305 297 295 295 294 294 294 294 294 293 292 292 292 292 291 291 290 290 289 288 288 289 290 291 291 290 289 288 288 288 287 287 287 287 287 287 288 288 288 288 288 288 287 287 287 287 287 286 286 286 285
316 315 315 314 312 311 310 310 309 309 309 310 310 310 311 313 313 313 314 315 315 313 313 312 312 313 314 314 313 312 313 312 312 311 304 297 295 294 294 294 293 293 293 292 292 292 292 291 291 290 290 289 289 288 290 291 293 294 293 292 290 289 288 287 287 286 286 287 287 287 287 287 288 288 288 288 287 287 287 287 287 286 286 286 286
316 316 315 314 312 311 311 310 309 309 309 310 310 310 310 312 313 313 314 315 314 313 312 312 312 313 313 313 312 312 313 312 311 310 303 296 294 294 293 293 293 292 292 292 292 292 291 290 290 289 289 289 289 290 293 295 297 297 296 294 292 290 288 287 287 286 286 287 287 287 287 287 287 288 288 287 287 287 287 287 287 286 286 286 286
316 316 316 314 313 312 311 310 309 309 309 310 310 310 310 311 313 313 314 314 313 313 312 312 312 313 312 312 312 311 311 310 310 308 301 295 294 294 293 293 292 292 292 292 292 291 291 290 290 289 289 289 291 293 296 298 298 298 297 295 294 291 289 287 287 287 287 287 287 287 287 287 287 288 288 287 287 287 287 287 287 287 286 286 287
315 316 316 315 313 312 311 310 309 309 308 309 310 310 309 310 313 314 314 313 312 312 312 312 312 312 311 311 311 311 310 308 307 304 298 294 294 293 293 292 292 292 292 291 291 291 290 290 290 289 290 291 294 297 298 298 298 297 296 296 294 292 290 288 288 288 288 288 287 287 287 287 287 287 287 287 287 287 287 287 287 287 287 286 287
315 315 315 315 314 313 311 310 309 309 308 308 309 309 309 310 312 314 312 311 311 312 311 310 311 311 311 310 310 310 309 306 305 301 295 293 293 293 292 292 292 292 292 291 291 290 290 290 289 289 291 293 296 298 298 298 297 297 296 295 294 293 292 290 289 289 288 288 288 288 288 288 288 288 288 287 287 288 288 287 287 288 287 287 287
315 315 315 315 315 313 312 311 309 309 308 307 307 308 308 310 312 313 312 312 311 311 310 309 310 310 310 310 310 310 308 305 302 298 294 293 293 292 292 292 292 292 292 291 291 290 290 290 289 290 293 296 298 298 298 297 297 296 295 295 294 294 293 292 291 290 290 290 290 290 289 289 288 288 288 288 288 288 288 288 288 288 288 287 287
315 315 315 315 315 313 312 311 310 308 308 307 307 307 307 309 310 311 312 312 312 311 310 309 309 310 310 309 308 308 307 303 300 296 293 293 293 292 292 292 291 292 292 291 291 290 289 289 290 292 295 297 298 297 297 296 296 296 295 295 294 294 293 293 292 291 291 291 291 291 290 289 289 289 289 288 288 288 288 288 288 288 287 287 287
316 315 315 315 314 312 311 311 309 308 308 307 307 306 307 308 309 311 311 311 311 311 310 309 309 309 309 308 308 307 306 303 299 295 293 293 292 292 292 292 291 291 291 291 291 290 289 289 291 294 296 297 297 296 296 296 295 295 295 294 294 293 293 293 292 292 292 292 292 291 291 290 290 290 289 289 289 288 288 288 288 288 287 286 286
315 315 315 315 314 313 311 310 309 308 307 307 307 306 306 307 309 310 310 310 310 310 309 309 309 309 309 308 307 306 305 302 298 293 292 292 292 292 292 291 291 291 290 290 290 289 289 290 292 294 295 296 296 296 296 295 295 294 294 294 293 293 292 292 292 292 292 291 291 291 291 291 291 290 290 289 289 289 289 288 288 287 286 285 285
315 315 315 314 314 312 311 309 309 308 307 306 306 306 306 307 308 309 309 310 310 309 309 309 308 308 308 308 308 306 304 301 296 293 291 291 291 291 291 291 290 290 290 290 289 289 290 291 293 294 295 295 296 295 295 294 294 294 294 294 293 293 292 292 292 291 291 291 291 291 291 291 290 291 290 290 289 289 288 288 287 285 284 283 283
315 315 314 314 313 312 310 309 308 307 306 306 306 306 306 307 308 308 308 308 308 308 308 308 307 307 307 307 307 306 304 301 296 292 291 291 291 291 291 291 291 290 289 289 289 289 290 291 293 294 295 295 295 295 294 294 293 293 293 293 293 293 292 292 291 291 291 291 290 290 290 290 290 290 289 288 287 287 286 286 285 283 282 282 282
314 314 314 314 313 311 309 308 307 307 306 305 305 305 305 306 306 307 307 307 307 307 307 307 306 306 305 305 305 304 305 302 296 291 290 290 290 290 290 290 290 289 288 288 288 288 289 291 292 293 294 295 295 294 294 293 292 292 292 293 293 292 292 292 291 291 291 290 290 290 290 290 289 289 288 287 285 284 283 283 283 282 281 281 282
313 313 313 313 312 310 309 307 306 306 305 305 305 305 305 305 305 305 306 306 305 305 305 305 305 305 304 304 303 303 303 301 295 290 289 290 289 289 290 289 289 288 288 288 288 288 289 290 292 293 294 294 294 293 293 292 291 291 292 292 292 292 291 291 291 290 290 289 289 289 289 288 287 287 286 285 284 283 282 282 282 282 281 281 282
312 313 313 312 311 309 308 306 305 305 304 304 304 304 304 304 305 305 305 305 305 304 305 305 304 304 303 302 302 301 301 299 294 290 289 289 289 289 289 288 288 288 288 288 288 288 288 289 291 293 293 293 293 292 292 291 290 291 292 292 292 291 291 290 290 289 288 288 287 287 287 287 286 285 284 283 282 282 282 281 282 281 281 281 281
312 312 311 311 309 308 307 305 304 304 303 303 303 302 303 303 303 304 304 304 304 304 304 304 303 302 301 300 299 299 298 297 294 290 288 289 289 289 288 288 287 287 287 287 287 287 288 290 291 292 293 292 292 292 291 290 290 291 292 291 291 291 290 289 288 288 287 286 286 286 286 285 285 284 284 284 283 282 281 281 281 281 281 281 280
311 311 309 308 307 306 305 304 303 303 302 302 301 301 301 302 302 302 302 302 302 302 302 301 300 299 299 298 297 296 295 294 291 289 288 289 289 288 288 287 287 286 286 287 287 288 290 291 292 292 291 291 291 291 290 290 290 291 291 290 290 290 289 287 287 286 286 286 286 286 286 286 285 285 285 285 284 283 282 281 281 280 280 280 280
310 309 307 307 306 305 304 303 302 302 301 300 300 300 300 300 301 301 301 301 300 300 299 298 297 297 296 296 295 293 292 291 290 289 289 289 288 288 288 287 287 286 286 287 289 290 291 291 291 291 291 291 290 290 290 290 291 291 289 289 289 288 287 287 286 286 286 287 287 286 286 286 285 285 285 285 284 283 282 281 280 280 280 280 280
308 307 306 305 304 303 302 302 301 300 300 299 299 298 298 299 299 299 299 299 298 298 297 297 296 296 295 295 294 292 290 289 288 288 288 288 288 288 288 287 287 287 287 289 290 291 291 290 290 290 290 290 290 290 290 290 289 288 288 287 287 287 286 287 287 286 286 285 285 284 284 284 283 283 284 283 282 281 280 280 280 280 280 280 280
306 306 305 304 303 302 301 300 300 299 298 298 298 298 298 298 298 298 297 297 297 296 296 296 296 295 294 294 293 291 289 288 287 287 287 287 288 287 287 287 287 288 288 289 290 290 291 290 290 290 290 290 291 290 290 289 287 287 287 287 287 286 285 285 285 284 283 283 283 283 283 282 282 282 282 282 281 281 280 280 280 280 279 279 279
305 304 303 302 302 301 300 299 299 298 298 297 297 297 297 297 297 297 296 296 295 295 295 295 295 294 294 293 293 292 291 289 287 287 287 287 287 287 287 287 288 288 289 290 290 291 291 290 290 290 290 291 291 290 289 288 287 287 287 287 286 285 284 284 283 283 282 282 282 282 282 282 281 281 281 280 280 280 279 279 279 279 278 278 278
303 303 302 301 300 300 299 299 298 298 297 297 297 297 297 297 297 297 296 295 294 295 295 294 294 294 294 294 293 293 292 291 289 288 288 287 287 287 288 288 288 289 289 290 291 291 290 290 291 291 291 290 289 288 288 288 288 287 287 286 285 285 284 284 283 283 283 283 283 282 282 281 281 280 280 280 280 279 279 278 278 278 278 278 278
302 302 301 300 300 299 299 298 298 297 297 297 297 297 296 296 296 295 295 294 294 294 294 294 294 293 293 293 293 293 293 292 291 290 289 289 288 289 289 289 289 290 290 291 291 291 291 291 291 290 289 288 288 288 288 288 287 287 286 286 285 285 284 284 284 283 283 282 282 282 281 281 280 280 280 279 279 279 279 278 278 278 278 277 277
302 301 301 300 300 299 299 298 297 297 296 296 296 296 295 295 295 294 294 294 293 293 293 293 293 293 293 293 293 292 292 292 291 291 290 290 290 290 290 291 291 291 292 292 292 291 290 290 289 288 288 288 288 288 288 287 287 286 286 285 285 285 284 284 283 282 282 281 281 280 280 280 280 280 279 279 279 278 278 278 278 277 277 276 276
302 301 301 300 300 299 299 299 298 297 296 296 295 295 294 294 294 293 293 293 293 293 293 294 294 294 294 294 293 293 292 292 292 292 292 292 292 292 292 292 292 292 291 291 290 289 289 288 288 288 288 288 288 288 287 287 287 286 286 285 285 284 283 283 282 281 280 280 279 279 279 279 279 278 278 278 278 278 277 277 277 277 276 276 275
302 302 301 301 300 299 299 298 298 297 296 295 295 294 293 293 293 293 293 294 294 295 294 294 294 294 294 294 293 293 293 293 293 292 292 292 292 292 291 291 290 290 289 289 288 288 288 288 288 288 288 288 287 287 287 286 286 285 285 284 283 283 282 281 280 279 278 278 278 277 277 277 277 277 277 277 277 277 277 276 276 276 276 275 275
302 302 301 300 300 299 298 298 297 297 296 295 295 294 294 294 294 294 294 294 294 294 294 293 293 292 292 292 292 291 291 291 291 291 290 290 290 290 289 289 289 289 288 288 288 288 288 288 288 288 288 287 287 286 286 285 285 284 283 282 282 281 280 279 278 278 277 277 277 277 276 276 276 276 276 276 276 276 276 276 276 276 275 275 275
302 302 301 300 300 299 299 298 298 298 298 297 297 296 296 295 294 294 294 293 293 292 292 292 291 291 291 291 290 290 290 290 290 289 289 289 289 289 289 289 289 289 289 289 289 288 288 288 287 287 286 286 285 285 285 284 284 283 282 281 280 279 279 278 277 277 277 276 276 276 276 275 276 276 276 276 276 276 276 276 276 276 275 275 275
302 302 301 301 301 300 300 299 299 298 298 298 297 297 296 295 293 293 293 292 292 292 291 291 291 290 290 290 290 289 289 289 289 289 289 289 289 289 289 289 289 289 288 288 288 287 287 286 286 285 285 284 284 284 284 283 283 282 281 281 280 278 278 278 277 277 277 276 276 276 275 275 275 275 275 275 275 275 275 275 275 275 275 275 275
300 301 301 301 301 300 300 300 299 298 298 297 297 296 296 295 293 292 292 292 291 291 290 290 290 290 289 289 289 289 289 289 289 289 289 289 289 289 289 289 288 288 287 287 286 286 285 285 285 284 284 284 283 283 283 283 282 281 281 280 280 279 278 277 277 277 277 276 276 275 275 274 274 274 274 274 274 274 274 274 274 274 274 274 273
300 300 300 300 300 300 300 299 298 298 297 296 295 294 294 294 293 292 291 291 290 290 290 290 289 289 289 289 289 289 289 289 289 289 289 289 289 288 288 287 287 286 286 285 285 285 284 284 284 283 283 283 283 282 282 282 281 281 280 280 279 278 278 277 277 277 276 276 275 275 274 273 273 273 273 273 273 273 273 273 272 272 272 272 272
299 299 299 299 298 298 297 297 296 295 295 294 293 292 292 292 291 291 291 290 290 290 289 289 289 289 289 289 289 289 289 289 289 289 288 288 288 287 287 286 286 285 285 284 284 283 283 283 283 283 282 282 282 281 281 280 280 280 279 278 278 277 277 276 276 276 275 275 275 274 273 273 273 272 272 271 271 271 271 271 271 270 270 270 269
297 296 296 295 294 294 293 293 293 292 292 291 291 291 291 290 290 290 290 290 290 290 289 289 289 289 289 289 289 289 289 289 288 288 287 287 286 286 285 285 284 284 284 283 283 283 283 282 282 282 282 281 281 280 280 279 279 278 278 277 277 276 276 275 275 274 274 274 273 273 272 272 272 271 271 270 270 270 270 269 269 269 268 268 268
293 293 293 292 291 291 291 291 291 290 290 290 290 290 290 290 290 290 290 289 289 289 289 289 289 289 289 289 289 289 288 288 287 287 286 286 285 285 284 284 283 283 283 283 283 282 282 282 282 281 281 280 280 279 279 278 278 277 277 276 276 275 275 274 274 274 273 273 272 272 272 271 271 270 270 270 269 269 269 268 268 268 267 267 267
291 291 291 291 291 290 290 290 290 290 290 290 290 290 290 290 290 289 289 289 289 289 289 289 289 289 289 289 288 288 287 287 286 286 285 285 284 284 283 283 283 283 282 282 282 282 281 281 281 280 280 279 279 278 278 277 277 276 276 275 275 274 274 274 273 273 273 272 272 271 271 271 270 270 270 269 269 269 268 268 268 267 267 267 267
291 291 291 291 291 291 290 290 290 290 290 290 290 290 290 290 289 289 289 289 289 289 289 289 289 288 288 287 287 287 286 286 285 285 284 284 284 283 283 283 282 282 282 282 281 281 281 280 280 279 279 278 278 277 277 276 276 275 275 274 274 274 273 273 273 272 272 272 271 271 270 270 270 269 269 269 269 268 268 268 268 267 267 267 266
291 291 291 291 291 291 291 290 290 290 290 290 290 289 289 289 289 289 289 289 289 289 289 289 288 287 287 286 286 286 285 285 284 284 284 283 283 283 282 282 282 282 281 281 281 280 280 279 279 278 278 277 276 276 276 275 275 274 274 274 273 273 273 272 272 272 271 271 270 270 270 269 269 269 269 268 268 268 268 268 267 267 267 266 266
291 291 291 291 290 290 290 290 290 290 290 289 289 289 289 289 289 289 289 289 289 288 288 287 287 286 286 286 285 285 284 284 284 283 283 283 282 282 282 282 281 281 281 280 280 279 279 278 277 277 276 276 275 275 275 274 274 274 273 273 273 272 272 272 271 271 270 270 270 270 269 269 269 269 268 268 268 268 267 267 267 267 266 266 266
291 291 290 290 290 290 290 289 289 289 289 289 289 289 289 289 289 289 289 288 288 287 287 286 286 286 285 285 284 284 284 283 283 283 282 282 282 281 281 281 280 280 280 279 278 278 277 277 276 276 275 275 275 274 274 274 273 273 273 273 272 272 271 271 270 270 270 269 269 269 269 269 269 269 268 268 268 267 267 267 267 266 266 266 266
291 290 290 290 290 290 290 290 290 290 290 290 290 289 289 289 289 288 288 287 287 286 286 285 285 285 284 284 283 283 283 282 282 282 282 281 281 281 280 280 279 279 278 278 277 277 276 276 275 275 274 274 274 274 274 273 273 273 272 272 272 271 271 270 270 270 269 269 269 269 269 269 269 268 268 268 268 267 267 267 266 266 266 266 265
290 290 290 290 290 290 290 290 290 290 290 290 289 289 289 288 288 287 287 286 286 285 285 284 284 284 283 283 282 282 282 282 281 281 281 280 280 280 279 279 279 278 277 277 276 276 275 275 274 274 274 274 273 273 273 273 273 272 272 271 271 271 270 270 269 269 269 269 269 269 269 269 268 268 268 268 268 267 267 267 266 266 266 265 265
290 290 290 290 291 290 290 290 290 290 289 289 289 288 287 287 286 286 285 285 285 284 284 283 283 283 282 282 282 282 281 281 281 280 280 280 279 279 279 278 278 277 276 276 275 275 275 274 274 273 273 273 273 273 273 272 272 272 271 271 270 270 270 269 269 269 269 269 269 269 269 269 268 268 268 268 267 267 267 267 266 266 266 265 265
290 290 290 290 290 290 290 290 289 289 288 288 287 287 286 286 285 285 284 284 283 283 283 282 282 282 282 281 281 281 281 280 280 280 279 279 279 278 278 277 277 276 276 275 275 274 274 273 273 273 273 273 272 272 272 272 272 271 271 270 270 270 269 269 269 269 269 269 269 269 269 268 268 268 268 267 267 267 267 267 266 266 266 265 265
290 290 290 290 290 289 289 289 288 288 287 287 286 286 285 285 284 284 283 283 283 282 282 282 281 281 281 281 280 280 280 280 279 279 279 278 278 277 277 276 276 275 275 274 274 274 273 273 273 273 272 272 272 272 272 271 271 271 270 270 270 270 269 269 269 269 269 269 269 269 269 268 268 268 267 267 267 267 267 266 266 266 266 265 265
289 289 289 289 289 288 288 288 287 286 286 285 285 285 284 284 283 283 282 282 282 282 281 281 281 280 280 280 280 280 279 279 279 278 278 277 277 276 276 275 275 274 274 274 273 273 273 272 272 272 272 272 271 271 271 271 270 270 270 269 269 269 269 269 269 269 269 269 269 268 268 268 268 268 267 267 267 267 267 266 266 266 266 265 265
289 288 288 288 287 287 286 286 286 285 285 284 284 284 283 283 282 282 282 281 281 281 281 280 280 280 279 279 279 279 278 278 278 277 277 276 276 275 275 274 274 274 273 273 273 272 272 272 272 272 271 271 271 271 270 270 270 270 269 269 269 269 269 269 269 269 268 268 268 268 268 268 268 268 267 267 267 267 266 266 266 266 266 265 265
288 287 287 286 286 285 285 285 284 284 284 283 283 282 282 281 281 281 281 280 280 280 279 279 279 279 278 278 278 278 277 277 277 276 276 275 275 274 274 273 273 273 273 272 272 272 272 271 271 271 271 271 271 270 270 270 270 269 269 269 269 269 269 269 269 269 268 268 268 268 268 268 268 268 267 267 267 267 266 266 266 266 266 265 265
286 285 285 285 284 284 284 283 283 283 282 282 281 281 281 280 280 280 280 279 279 279 278 278 278 278 277 277 277 277 276 276 276 275 275 274 274 273 273 273 272 272 272 272 271 271 271 271 271 271 271 271 270 270 270 270 269 269 269 268 268 269 269 269 268 268 268 268 268 268 268 268 268 268 267 267 267 267 266 266 266 266 266 266 265
284 284 283 283 283 283 282 282 282 281 281 280 280 280 280 279 279 279 278 278 278 278 277 277 277 277 276 276 276 275 275 275 275 274 274 273 273 273 272 272 272 271 271 271 271 271 270 270 270 270 270 270 270 270 269 269 269 268 268 268 268 268 268 268 268 268 268 268 268 268 268 268 268 267 267 267 267 266 266 266 266 266 266 266 265
Wind_Speed
17 19 20 21 22 23 25 27 29 31 31 32 32 33 33 35 35 35 32 31 30 29 28 28 30 31 30 30 30 30 31 32 32 34 36 36 35 34 33 33 33 33 33 31 30 28 26 25 24 23 21 19 17 14 11 10 10 9 9 10 12 13 14 15 17 17 18 21 23 24 24 24 24 24 26 27 26 27 27 27 28 28 28 28 28
17 19 19 20 20 21 24 26 28 30 31 31 32 32 32 34 35 34 31 30 30 29 28 28 29 30 33 32 31 31 32 31 32 34 37 36 35 33 33 33 32 32 32 31 28 27 26 25 24 22 21 19 15 12 9 8 8 9 10 12 13 15 16 17 18 19 20 22 24 25 25 26 26 26 27 28 27 28 29 30 30 30 29 28 28
18 19 21 20 20 20 24 26 27 30 31 31 32 32 31 31 32 32 30 30 31 28 26 28 29 31 34 34 31 31 32 31 31 34 37 37 34 33 32 32 32 31 30 29 27 26 25 24 23 22 19 16 13 10 9 9 11 13 14 14 14 16 17 18 19 20 21 22 23 26 27 27 28 28 29 29 28 29 30 31 31 31 30 29 28
19 21 22 21 20 22 24 25 27 31 33 33 32 31 31 30 30 30 30 31 31 28 26 28 29 32 36 36 33 31 32 32 32 34 36 36 34 32 32 31 31 30 29 27 26 25 24 23 22 19 17 14 12 11 13 15 17 19 19 19 18 17 18 19 19 20 22 23 23 25 27 29 29 30 31 31 30 30 31 31 31 32 31 30 28
21 22 23 22 22 23 25 25 27 30 33 34 32 30 30 31 31 31 31 31 30 27 27 28 29 32 34 35 34 32 32 32 32 34 36 35 33 31 31 31 30 29 28 26 25 24 23 22 19 17 15 15 15 16 17 18 20 21 22 22 21 20 19 20 21 21 22 24 25 25 26 28 30 31 31 32 31 31 31 32 33 33 31 30 29
22 23 24 24 24 24 25 25 26 29 32 34 32 30 30 31 32 33 33 31 29 28 28 29 30 31 30 30 32 32 31 32 33 34 35 35 33 32 31 31 30 29 27 26 26 25 24 23 21 19 18 18 18 17 17 18 19 20 21 23 23 23 22 22 23 23 23 25 26 26 26 28 31 32 32 32 33 32 32 33 34 34 33 32 32
23 24 25 26 25 25 25 25 26 26 29 32 32 31 31 31 31 32 31 30 29 28 27 27 30 31 29 28 29 29 30 31 32 34 35 34 33 32 32 31 30 28 28 27 27 25 24 23 22 22 21 19 17 15 16 18 19 20 20 22 23 24 25 25 26 26 26 27 27 27 27 28 31 33 32 32 34 33 33 35 36 35 35 35 36
24 25 25 26 26 26 25 25 25 25 26 29 32 32 32 31 31 31 30 30 30 28 25 26 28 31 32 31 29 29 29 30 32 35 36 35 33 32 32 31 30 29 28 28 27 25 25 24 23 23 21 17 15 16 18 18 19 20 20 20 21 23 25 27 28 29 29 30 30 30 30 31 32 33 32 33 35 34 34 37 39 38 38 39 40
24 25 25 26 27 27 26 25 25 25 25 27 31 33 32 32 32 32 32 33 33 30 26 26 28 30 33 33 30 28 29 30 33 35 35 34 33 32 32 32 31 31 30 29 28 27 26 25 24 23 19 16 16 18 19 18 19 21 21 21 21 22 24 26 27 29 30 32 33 33 33 34 34 34 33 34 35 36 36 39 41 41 42 44 44
26 26 26 26 28 27 27 25 24 24 25 26 29 32 33 33 33 33 33 33 32 31 28 27 28 29 31 32 30 28 29 30 32 33 34 33 33 33 33 33 32 31 31 30 29 27 26 25 24 21 18 17 19 19 18 18 19 22 23 24 23 21 22 24 25 27 29 31 33 34 35 36 36 35 35 35 36 38 39 41 43 43 45 47 48
27 27 26 26 28 28 28 26 24 24 25 25 26 30 32 33 33 33 33 32 32 32 31 30 30 29 28 29 29 28 28 29 31 34 34 34 33 33 32 32 32 31 30 29 28 28 27 26 24 20 18 19 20 20 19 19 20 22 25 27 27 25 25 25 25 26 28 30 33 34 36 38 38 37 37 38 38 40 42 43 45 46 47 48 49
27 28 27 27 29 30 28 26 25 25 25 25 25 27 30 32 32 32 32 31 30 30 30 29 30 31 30 29 29 29 29 30 32 35 35 34 33 32 32 31 31 30 29 28 28 27 27 26 23 20 19 20 21 21 22 21 22 24 27 29 30 30 30 29 29 28 29 31 34 35 36 38 39 39 39 39 41 43 44 45 47 49 49 48 49
28 28 28 29 30 30 29 27 26 25 25 25 25 25 28 30 31 31 31 31 29 27 27 27 29 31 32 32 31 30 30 31 33 35 35 34 33 32 31 30 30 29 29 28 28 28 27 25 22 20 20 20 22 23 24 24 25 26 28 29 31 32 33 33 33 33 34 35 37 38 38 38 40 41 39 40 43 46 47 48 48 47 46 46 48
30 30 30 30 31 31 29 27 26 25 24 24 25 26 27 29 30 30 30 29 28 28 28 28 28 29 31 32 32 30 29 31 33 35 35 34 33 32 31 30 30 29 28 28 27 27 25 24 23 21 20 22 24 25 26 27 27 29 31 32 32 32 32 33 33 34 36 37 39 41 41 40 42 43 42 43 46 48 48 48 48 46 44 45 47
31 30 30 31 32 32 29 26 25 25 24 23 24 25 26 27 28 29 28 26 25 26 27 28 27 26 27 30 31 30 30 31 33 35 35 34 33 32 31 30 30 28 27 26 26 26 26 25 23 22 23 25 26 27 28 29 29 31 34 36 34 32 32 32 32 34 35 37 39 41 42 42 43 44 45 45 47 47 46 46 47 45 43 46 49
32 31 30 31 32 31 28 25 24 23 23 23 23 24 25 26 26 25 24 23 23 22 23 24 25 24 25 27 29 29 29 30 32 35 35 35 34 33 31 30 28 27 26 26 26 27 27 25 24 25 27 28 28 28 29 29 30 33 37 38 36 34 35 34 34 35 36 38 40 42 43 44 44 44 45 44 43 42 41 43 45 43 40 44 49
32 30 30 30 31 29 25 23 22 22 21 21 22 22 23 24 24 24 23 22 21 20 21 21 22 23 23 24 25 27 28 29 32 34 35 35 34 32 30 29 28 27 26 26 26 27 26 25 27 29 31 31 30 30 29 30 32 36 38 37 36 36 38 37 36 37 38 40 42 43 44 45 45 44 44 42 38 35 35 40 44 42 39 42 47
30 29 29 29 27 25 22 20 20 19 19 19 19 19 20 21 23 23 23 22 21 21 21 21 21 21 21 21 22 23 25 27 30 32 34 35 34 31 30 29 28 27 26 25 25 25 25 27 30 32 32 32 32 31 30 31 35 38 37 35 37 39 40 39 39 40 41 42 44 45 45 46 45 45 45 43 40 36 34 38 41 42 42 44 47
27 27 26 25 24 22 20 19 18 18 17 16 16 16 16 18 19 20 20 20 20 20 20 20 19 18 18 18 18 19 21 24 27 30 32 33 33 30 29 28 27 26 25 24 24 25 27 30 31 32 33 34 34 32 32 34 37 37 34 35 39 41 40 40 41 42 43 44 44 45 46 46 45 45 44 43 41 39 36 35 35 36 40 44 46
24 23 23 22 21 19 18 18 17 16 15 14 14 14 15 15 16 17 17 17 16 15 15 15 14 14 15 16 16 17 19 20 24 27 29 30 30 29 28 27 26 25 24 25 26 28 29 31 32 33 34 35 35 34 34 36 36 35 34 36 39 41 40 40 40 40 41 43 43 43 45 45 45 45 44 43 42 40 38 36 33 32 34 37 40
22 21 21 20 19 18 17 17 16 15 15 14 14 13 13 13 14 14 14 13 12 11 11 12 13 14 15 15 16 17 19 20 21 24 26 27 28 28 28 27 25 25 25 26 28 29 30 31 33 35 36 36 35 35 35 34 33 34 34 36 37 37 36 37 38 38 39 40 41 42 43 44 45 46 46 45 43 41 39 38 35 32 31 32 34
20 20 19 18 18 18 17 17 16 16 15 15 14 14 14 13 13 13 12 11 11 10 11 12 13 14 15 16 17 18 19 21 22 23 24 26 27 27 26 26 26 26 27 29 30 31 32 33 34 35 36 36 35 34 33 32 32 32 32 32 32 32 32 33 34 35 36 38 39 41 42 43 43 44 45 45 43 41 39 39 38 35 33 32 31
18 18 18 18 18 18 17 17 17 16 16 16 16 16 16 15 15 14 13 13 12 12 12 13 13 14 14 15 16 16 18 20 22 23 23 24 25 25 26 26 28 29 30 31 32 32 32 33 33 34 35 34 33 32 31 30 30 30 30 30 30 29 30 31 32 34 35 37 37 39 40 40 40 41 42 43 42 41 41 41 40 39 37 36 34
17 17 18 18 17 17 17 17 17 17 18 18 18 17 17 17 17 16 15 15 14 13 13 13 12 13 13 13 14 14 16 19 22 23 24 24 25 25 27 28 29 30 31 32 32 32 32 32 32 32 31 31 30 29 28 28 28 29 29 29 29 29 29 30 31 32 33 34 35 36 37 36 37 37 38 39 41 42 43 42 40 39 38 37 35
17 17 17 17 17 17 18 18 18 19 19 19 19 19 18 18 18 17 16 15 14 13 13 12 12 11 11 11 11 11 13 15 18 21 23 24 25 26 27 28 29 30 30 31 30 30 29 29 29 28 28 28 27 27 27 28 28 28 28 28 28 28 28 29 29 29 30 32 33 33 33 33 34 35 35 36 38 41 41 40 40 39 38 36 35
16 16 17 17 18 18 19 20 20 20 20 19 18 18 18 18 17 16 15 15 14 13 12 12 11 11 11 10 10 10 11 12 14 17 19 21 22 23 24 25 25 26 26 26 26 25 25 25 25 25 25 25 26 27 27 28 28 27 27 26 26 27 27 27 27 27 28 28 29 29 29 30 31 32 33 34 36 38 39 39 39 39 38 36 36
17 17 18 18 19 20 20 21 22 21 20 19 18 18 17 16 15 15 14 14 14 14 14 14 13 13 13 13 13 13 13 13 14 15 16 17 18 18 19 19 20 21 21 21 22 22 22 23 23 23 24 25 26 26 27 27 27 26 26 25 25 26 26 27 27 26 25 25 25 26 26 27 28 29 30 32 33 35 36 36 37 37 37 36 36
17 18 18 19 20 21 21 21 22 22 20 19 18 18 17 16 15 15 14 14 14 14 15 14 14 14 14 14 14 15 14 14 14 14 14 14 14 14 15 15 16 16 17 18 19 20 20 21 22 23 23 24 25 25 25 26 26 26 26 27 28 28 28 27 27 27 26 25 26 26 27 28 28 28 29 31 32 32 33 34 35 35 35 35 35
18 18 19 19 20 21 21 20 20 20 20 20 19 18 17 16 16 15 15 14 14 14 14 14 14 14 14 14 14 13 13 12 11 11 11 11 11 11 12 12 13 14 15 16 18 19 20 21 22 22 23 23 24 24 25 25 26 27 27 28 28 28 27 26 25 26 25 24 24 25 27 29 30 29 29 30 31 31 31 32 33 33 33 33 33
18 18 18 19 19 20 20 20 20 19 20 20 20 19 19 18 17 17 17 16 16 16 15 15 15 14 13 13 12 11 9 9 9 9 10 10 10 10 11 12 12 13 15 16 18 19 20 21 22 22 23 23 24 25 26 27 28 28 28 27 27 27 26 25 24 25 25 25 25 27 28 30 31 30 29 30 31 31 32 33 33 33 33 33 33
18 18 19 19 19 19 20 20 20 19 19 20 20 20 20 20 20 18 17 17 16 15 14 14 13 12 11 10 10 10 9 9 9 9 9 10 10 11 12 12 13 14 15 17 18 19 20 21 21 22 23 24 25 26 27 28 28 29 29 28 27 26 27 27 27 27 28 28 30 31 30 30 30 29 29 30 31 32 33 34 35 35 35 35 35
18 19 19 19 19 19 19 19 19 19 20 20 20 19 20 20 20 19 18 16 15 14 14 13 12 12 11 10 10 9 9 10 10 10 10 11 11 12 12 13 14 15 16 16 17 18 18 20 21 22 23 24 25 26 27 27 28 28 28 28 27 27 27 28 28 29 29 30 31 31 29 29 29 29 29 31 33 34 34 34 35 36 37 36 36
18 19 20 21 20 20 20 19 19 20 20 20 19 18 18 18 18 18 18 17 16 15 14 13 12 12 11 11 10 10 10 11 11 11 11 11 12 12 13 14 14 15 14 14 16 17 18 19 21 22 23 24 25 25 26 27 27 27 27 27 27 27 27 28 28 29 29 30 30 30 30 29 29 29 30 31 32 33 34 34 33 33 34 35 35
20 19 20 20 20 20 20 20 20 20 19 19 18 18 18 17 15 15 16 16 16 15 14 14 13 13 12 12 12 12 11 11 11 11 11 12 13 13 13 13 14 14 14 14 15 17 19 20 21 22 23 24 25 25 26 26 26 26 26 26 26 27 27 27 27 28 29 30 30 30 31 31 31 31 31 31 31 32 32 32 31 30 29 30 31
22 21 20 20 20 20 20 20 20 20 20 19 19 18 18 17 16 14 14 14 15 15 14 14 14 14 14 13 13 12 12 12 12 12 12 13 13 12 12 12 13 15 16 16 16 18 19 21 22 23 23 24 25 25 25 26 26 25 26 26 26 26 27 27 27 27 28 29 29 29 29 29 29 29 29 29 29 29 30 29 28 28 27 28 29
23 22 22 21 21 21 20 21 20 20 20 20 19 19 18 18 17 16 15 15 15 15 15 14 14 14 14 14 13 13 13 13 13 13 12 12 11 12 12 13 14 16 17 18 18 19 20 22 23 23 23 24 24 25 25 25 25 25 25 25 25 26 26 26 27 27 27 27 27 27 27 27 27 26 26 26 25 26 26 26 26 26 26 27 28
23 23 23 22 22 21 21 21 21 20 20 20 19 19 19 18 17 17 17 16 16 16 16 15 14 14 14 14 13 13 13 13 12 12 12 12 12 12 13 14 16 17 18 18 19 20 21 22 23 23 24 24 24 24 25 25 24 24 24 24 24 24 25 26 26 26 26 26 26 25 25 24 24 24 24 24 24 24 24 24 24 24 24 25 26
24 23 22 22 22 21 21 21 21 21 20 20 20 20 19 19 18 18 17 17 17 16 16 15 15 14 14 13 13 13 13 12 12 12 12 12 13 14 15 16 17 18 19 20 20 20 22 22 23 23 24 24 24 24 24 24 23 23 23 23 23 23 24 25 25 25 25 25 24 23 23 23 22 22 22 22 22 22 22 22 23 23 23 23 24
24 23 22 21 20 20 21 21 21 21 21 21 21 20 19 19 19 19 19 18 17 16 16 15 14 14 13 13 13 13 13 13 12 12 13 14 14 15 16 17 18 19 20 21 21 22 22 23 23 23 23 23 22 22 22 22 22 22 22 22 22 22 23 24 24 24 23 22 22 21 21 21 20 20 20 20 21 21 21 22 22 22 23 23 23
24 23 22 21 20 20 20 20 20 20 20 20 20 20 20 20 20 19 18 17 16 16 15 14 14 13 13 13 13 13 13 14 14 14 15 15 16 17 18 18 19 20 21 22 22 23 23 23 23 22 22 22 21 21 21 21 21 21 21 21 21 21 22 22 23 23 21 20 19 19 19 19 19 19 19 19 20 21 21 22 22 22 22 23 23
23 23 22 21 21 20 20 20 20 19 20 20 20 20 20 20 19 18 17 16 16 15 14 14 14 14 14 13 14 14 14 14 15 15 16 17 17 18 19 19 20 21 22 22 22 23 23 23 22 21 21 21 20 20 20 20 20 20 20 20 20 21 21 21 21 21 20 18 17 18 18 19 19 19 18 19 19 20 21 21 21 22 22 22 23
22 21 21 20 20 20 20 20 20 20 21 21 21 20 19 19 18 17 17 16 15 15 15 14 14 14 14 14 14 14 14 15 16 16 17 17 18 19 19 20 21 21 22 23 23 23 23 22 22 21 20 20 20 20 20 20 19 19 19 20 20 20 20 19 19 19 18 17 17 17 18 18 19 19 19 19 20 20 20 20 21 21 22 22 22
20 19 19 18 19 19 19 20 20 21 21 21 20 19 18 18 17 17 16 16 16 15 15 14 14 13 13 13 14 14 15 15 16 17 17 18 19 20 20 21 22 22 23 23 23 23 22 22 21 20 20 20 20 20 20 19 19 19 19 19 19 19 18 18 18 18 17 17 17 17 18 19 19 19 19 20 20 20 20 21 20 20 21 21 22
20 19 18 18 19 19 20 21 21 20 20 19 19 18 18 18 17 17 16 16 15 14 14 14 14 14 14 14 14 15 15 16 17 17 18 19 20 21 22 22 22 23 23 23 23 22 22 21 21 20 20 20 20 20 20 20 20 19 19 19 19 18 18 17 18 17 17 17 18 18 19 19 20 20 20 20 21 21 20 20 20 20 20 20 21
20 20 19 20 20 21 21 21 21 20 20 19 19 19 19 18 18 17 16 15 14 14 14 14 14 14 14 14 15 15 16 17 18 18 19 20 21 22 23 23 23 23 23 23 23 22 21 21 21 20 20 21 21 21 20 20 20 20 19 19 18 17 17 17 17 18 18 18 19 19 20 20 20 21 20 20 21 21 21 20 20 20 20 20 20
21 20 20 21 21 21 21 21 20 20 20 19 19 19 18 18 17 16 15 14 14 14 14 14 14 15 15 15 16 17 17 18 19 20 21 22 22 23 24 24 24 24 23 23 22 22 21 21 21 21 21 21 21 21 21 21 20 20 19 19 18 17 17 18 18 18 18 19 20 21 21 21 21 21 21 21 21 21 21 21 20 20 20 20 20
22 21 21 20 20 20 20 20 20 20 20 19 19 18 17 16 16 15 15 15 15 15 15 15 15 15 16 16 17 18 19 20 21 21 22 23 23 24 24 24 24 23 23 23 22 22 22 22 22 21 21 21 21 22 22 21 21 21 20 19 18 18 18 18 19 19 19 20 21 21 22 22 21 21 21 21 21 21 21 20 20 20 20 19 19
22 21 21 20 19 19 20 20 20 20 19 19 18 17 16 16 15 15 15 15 15 15 15 15 16 16 17 18 19 20 20 21 22 22 23 24 24 24 24 24 24 23 23 23 22 22 23 23 23 22 22 22 22 22 22 22 22 21 21 20 19 19 19 19 20 19 20 21 21 22 22 22 22 21 21 20 20 20 21 20 20 20 20 19 18
21 21 20 20 20 20 19 19 19 18 18 17 17 16 15 15 15 14 14 14 14 15 15 16 17 18 19 19 20 21 21 22 22 23 24 24 24 24 24 24 24 24 24 23 23 23 24 24 24 24 24 24 23 23 22 22 22 22 21 21 20 20 21 21 20 20 21 22 22 22 23 22 22 21 21 20 20 20 20 20 20 20 20 19 19
21 20 20 20 20 20 19 19 18 17 17 16 15 15 14 14 14 14 14 14 15 16 16 17 18 19 20 21 21 22 22 23 23 24 24 24 24 24 25 25 25 25 24 24 24 24 24 25 25 26 26 25 25 24 23 23 23 22 22 22 22 22 22 22 21 21 22 23 23 23 23 23 22 21 20 19 19 19 20 20 20 20 20 19 19
20 20 20 20 19 19 18 17 17 16 15 15 14 13 13 13 13 14 14 15 16 17 18 18 19 20 21 22 22 23 23 23 24 24 24 24 24 25 25 25 25 25 26 26 25 25 26 26 26 27 27 27 26 26 25 24 23 23 23 23 23 23 23 22 22 22 23 24 24 24 24 23 22 21 20 20 19 19 19 19 19 19 20 19 19
Wind_Direction
275 275 271 265 260 256 250 243 239 236 236 236 235 233 227 222 226 231 231 232 231 226 226 229 231 232 231 232 238 241 237 231 227 226 224 222 221 223 224 224 224 225 227 229 230 231 230 229 228 229 229 229 228 228 230 238 249 260 270 277 281 280 279 276 273 271 272 276 282 288 292 294 296 297 298 299 301 302 301 301 301 302 301 300 299
272 273 273 268 263 256 250 245 240 237 237 235 232 231 227 223 225 229 231 233 228 222 225 229 230 231 231 231 235 240 240 237 233 229 226 223 222 224 225 225 226 227 228 229 229 229 228 228 228 227 227 225 223 223 228 238 252 264 272 278 283 284 281 280 279 277 276 280 284 288 291 294 295 297 298 299 301 303 303 304 304 303 301 299 297
266 267 268 267 263 255 249 246 241 236 235 233 230 228 225 223 225 228 230 230 224 221 226 230 232 233 231 230 234 239 240 238 236 234 229 225 224 225 226 226 228 228 228 228 227 228 228 228 227 225 223 219 216 217 223 235 249 258 262 266 272 278 280 281 281 281 281 282 284 288 292 294 295 296 296 297 301 302 303 304 304 303 302 299 296
265 265 265 265 261 255 249 246 242 237 233 232 230 225 222 223 225 228 233 230 222 221 229 231 232 235 234 231 230 235 239 239 239 237 231 226 225 227 227 227 228 228 228 228 228 229 229 227 225 222 217 212 211 217 229 243 255 261 263 262 262 267 275 279 280 281 282 283 285 288 291 292 293 294 295 297 300 302 303 304 302 301 301 299 296
265 266 267 264 260 257 253 249 245 240 235 232 229 225 222 223 224 227 232 230 226 228 232 232 234 237 238 235 231 233 237 239 240 237 231 226 226 228 228 228 228 227 227 228 228 227 226 222 218 214 211 212 218 230 244 259 270 272 271 268 263 262 268 274 277 279 282 285 287 288 289 291 291 291 293 297 299 301 303 303 302 301 300 298 294
263 265 266 265 260 259 257 253 249 245 239 234 229 225 224 224 227 229 228 229 233 236 235 233 236 239 241 240 237 237 239 239 239 236 230 227 226 227 227 227 227 227 227 227 226 224 221 218 216 215 216 221 231 245 263 277 282 283 281 276 270 265 264 268 273 276 279 282 285 287 287 289 289 289 292 297 299 301 303 303 302 301 300 298 294
262 264 266 266 264 260 258 255 252 249 245 239 232 226 225 225 228 230 228 229 234 236 235 235 236 237 240 242 242 240 238 238 237 233 229 227 228 227 226 226 226 226 226 225 223 221 219 217 217 218 222 231 244 263 279 285 287 288 287 283 278 272 268 269 272 274 275 278 281 283 284 285 286 288 292 296 297 299 302 302 301 301 300 298 295
263 265 267 268 267 263 259 256 253 250 247 242 234 228 225 224 225 226 227 230 233 235 239 243 240 238 238 239 241 240 237 236 234 230 227 227 228 228 227 227 227 225 225 223 221 220 220 218 218 222 229 240 258 275 284 289 291 290 288 287 284 280 277 276 275 274 275 277 279 281 283 283 284 287 291 294 295 297 300 301 300 299 300 298 297
263 265 266 267 268 266 262 257 254 250 246 241 235 229 225 224 224 225 228 231 231 231 237 244 244 241 238 235 237 239 237 234 233 231 229 229 229 229 229 228 228 227 226 223 221 221 221 219 221 226 234 249 265 275 284 292 294 290 287 286 286 286 284 282 280 279 280 282 283 284 283 282 284 287 289 291 294 296 297 298 298 298 300 298 296
262 262 264 266 266 266 263 258 254 249 245 241 235 229 225 224 225 226 229 233 232 228 230 239 242 242 239 237 236 236 234 233 233 233 232 232 233 232 230 230 229 229 228 225 223 221 220 220 224 230 241 257 267 275 285 295 297 293 289 284 283 286 287 286 285 284 285 287 287 287 285 283 284 287 289 290 293 295 296 297 298 299 300 299 297
260 260 262 263 264 263 261 257 252 246 243 241 236 229 225 224 226 227 229 234 235 231 230 235 239 241 241 239 236 234 232 231 231 232 232 233 234 234 233 233 231 229 227 226 224 222 221 224 229 236 248 261 269 275 284 293 299 299 293 286 282 282 284 287 287 287 288 288 288 288 287 286 286 287 289 291 293 295 296 297 298 298 298 298 297
260 259 260 260 260 260 258 254 249 244 240 238 236 231 226 224 225 227 229 234 237 235 234 236 238 238 239 239 238 235 231 230 231 232 232 233 234 234 235 235 233 230 229 227 225 223 223 227 233 242 255 266 274 277 281 289 298 303 299 290 284 281 281 283 285 287 288 288 289 289 289 290 290 290 291 294 296 296 297 297 297 297 296 295 294
262 258 257 258 258 257 255 251 246 242 238 236 234 230 225 223 224 226 230 236 238 236 238 242 242 239 237 237 239 237 232 230 231 232 232 232 234 234 234 234 234 233 232 229 226 224 226 232 238 248 262 274 282 283 282 285 293 302 304 296 288 284 282 282 283 284 285 286 288 289 289 292 293 292 294 297 298 297 297 297 296 294 293 291 291
263 258 257 258 257 255 252 248 244 241 238 234 231 227 224 223 225 229 234 239 239 236 240 246 247 244 240 239 239 238 233 229 230 232 232 232 234 234 235 236 235 234 232 229 227 227 231 237 244 254 270 283 290 289 285 285 290 299 305 299 289 285 284 284 283 284 285 287 288 288 289 292 294 294 296 298 297 296 295 295 294 292 289 288 288
261 257 256 257 256 252 248 245 242 240 237 233 229 226 224 224 227 232 237 241 241 239 240 244 248 248 246 244 242 238 233 228 227 230 231 231 233 234 235 236 234 232 230 229 230 232 235 240 248 261 277 287 293 292 287 286 291 298 302 299 290 284 285 285 286 287 289 289 288 288 289 291 294 294 295 296 296 295 293 293 293 291 288 288 288
259 256 255 256 254 251 247 243 241 238 235 232 227 224 222 223 225 230 235 240 243 243 244 246 249 250 250 248 245 240 234 228 226 228 228 228 230 232 234 234 233 231 231 231 234 236 238 243 254 267 277 284 290 291 289 287 290 295 298 296 289 285 285 286 286 288 290 290 290 290 289 290 292 293 294 295 295 296 297 296 295 292 289 288 289
257 255 255 254 251 248 245 242 239 236 232 229 227 224 222 222 224 227 231 236 241 244 246 249 252 253 251 248 245 240 234 228 225 226 226 226 228 230 232 234 233 233 233 234 237 239 242 250 260 269 275 281 287 292 291 289 290 294 295 291 286 284 285 285 286 288 289 289 288 288 287 288 290 292 293 294 294 293 292 290 291 290 288 286 287
256 255 253 250 247 244 242 238 234 232 228 226 226 224 222 222 224 228 232 236 240 244 248 252 254 253 250 246 243 239 234 229 226 226 226 227 228 229 231 233 234 233 234 236 239 243 249 256 263 269 274 279 286 291 291 289 290 292 290 285 283 283 284 287 289 289 289 288 288 288 288 289 291 292 293 295 295 294 287 283 284 284 281 281 283
253 251 247 243 241 238 234 229 225 222 219 219 220 221 221 221 224 229 234 239 245 250 253 255 255 253 251 248 244 237 232 230 229 228 227 228 230 230 231 233 233 233 234 237 242 249 255 260 266 271 274 279 286 290 289 288 288 287 283 281 282 283 286 289 290 290 290 291 291 292 292 293 295 297 298 300 302 303 299 293 289 284 279 279 280
245 242 238 235 233 229 223 218 215 211 207 207 209 211 213 214 218 225 231 238 246 251 250 249 247 246 246 246 241 234 228 228 230 230 230 230 232 233 234 234 233 233 236 241 248 255 260 265 269 272 275 280 285 288 287 285 284 282 281 281 282 285 288 290 290 292 293 293 295 297 298 300 303 305 308 310 311 311 309 306 301 294 286 282 280
237 234 231 227 222 216 211 207 202 198 195 194 196 200 202 204 210 218 225 231 235 235 231 228 228 230 232 232 230 226 220 219 223 226 227 229 231 233 235 235 234 236 241 247 253 258 263 267 270 273 277 281 284 285 285 284 283 282 283 284 286 289 293 293 295 298 299 300 302 304 307 308 309 311 313 313 313 313 312 310 309 304 296 290 285
230 227 222 217 211 206 202 197 190 187 185 184 186 187 187 190 198 204 208 212 214 217 217 218 220 223 225 226 225 223 218 215 215 217 220 224 228 230 232 234 236 240 244 250 255 260 265 268 272 276 280 282 283 284 284 284 284 285 287 290 293 296 297 297 300 302 303 304 305 306 308 308 308 309 311 312 312 314 312 310 309 307 303 300 295
221 217 210 206 202 197 192 187 183 180 178 177 179 179 179 182 188 191 193 197 203 209 213 216 218 219 221 223 224 224 220 216 215 215 217 220 224 227 230 234 237 242 246 252 257 263 267 270 273 276 278 281 283 284 284 286 288 291 294 297 298 298 298 299 301 302 302 303 303 303 305 306 305 307 309 310 310 310 308 306 306 306 305 305 302
209 204 200 196 192 187 182 179 177 175 173 174 174 173 174 178 183 186 190 195 200 204 206 208 209 211 214 218 220 221 220 218 216 216 217 219 223 227 231 235 239 244 249 255 260 263 266 269 272 275 278 281 284 286 289 292 294 297 299 300 301 302 302 302 302 302 301 302 304 304 303 303 303 303 304 305 304 303 304 306 306 305 305 305 304
199 194 191 187 182 180 176 173 173 172 170 172 172 172 174 179 183 186 189 191 193 195 196 198 199 202 204 206 208 211 212 213 215 217 219 222 225 229 233 238 242 247 251 255 259 261 264 268 272 276 280 284 287 291 294 296 298 299 301 304 306 306 306 306 307 306 305 306 309 308 305 304 303 301 301 300 300 300 302 303 302 302 303 303 303
189 185 183 179 176 175 173 170 169 170 169 170 171 173 177 180 182 184 186 186 185 186 188 190 189 189 190 189 191 194 196 201 207 212 217 221 225 229 234 238 242 246 250 254 258 263 267 271 275 279 283 287 290 293 295 297 300 303 306 307 308 308 310 309 309 309 309 310 312 310 308 306 305 303 302 299 297 297 297 297 297 298 300 302 302
183 179 178 175 173 173 173 171 169 169 169 169 170 172 176 178 179 182 183 183 183 182 183 184 184 184 185 186 188 191 193 196 200 204 210 216 220 225 230 235 240 245 250 256 262 266 269 273 276 280 284 287 290 293 296 300 303 305 306 307 308 309 310 311 312 312 313 314 314 313 312 310 308 307 305 302 300 299 298 298 298 298 299 301 300
180 178 175 174 172 172 172 172 171 169 168 169 169 171 172 173 176 179 180 181 182 181 181 181 181 182 184 186 187 190 193 197 200 203 208 213 218 224 229 235 241 247 253 258 263 266 269 273 277 281 285 288 291 294 298 301 304 306 309 311 313 315 317 319 320 320 319 318 316 315 316 317 314 311 309 306 305 305 304 303 302 302 302 302 301
177 176 174 173 172 170 170 172 172 171 169 169 170 170 169 171 173 173 174 177 178 177 176 176 177 179 183 186 188 190 193 195 196 200 206 212 218 225 231 237 243 249 253 258 262 267 271 275 279 282 285 289 292 296 300 304 309 312 315 316 318 321 322 322 321 319 318 316 312 309 310 313 315 313 309 308 307 307 306 305 304 305 305 305 305
173 173 172 172 171 170 170 171 172 173 172 170 170 170 169 170 171 171 175 177 176 175 175 176 178 182 185 186 187 189 191 193 196 201 206 212 218 225 232 238 244 250 256 261 266 270 274 278 281 285 290 295 300 305 309 312 314 315 316 317 318 319 319 317 315 313 311 309 306 303 302 305 310 311 308 307 307 306 306 305 304 304 304 305 305
173 172 171 173 173 173 173 173 172 174 174 173 174 175 173 173 173 175 179 180 178 176 176 177 180 182 184 185 187 187 188 191 199 205 210 218 225 232 239 245 250 255 260 265 270 275 279 284 290 296 301 306 309 310 312 313 313 313 313 314 314 313 312 310 308 306 304 303 302 302 301 302 306 307 305 304 304 304 304 303 303 303 303 303 304
178 176 175 177 178 178 178 178 176 176 177 178 180 182 182 181 179 178 180 179 178 177 176 177 178 179 182 187 192 196 199 203 210 217 223 230 237 243 249 254 258 261 265 270 277 284 290 296 301 305 307 308 308 309 309 309 310 310 310 311 310 308 306 304 304 303 302 301 302 302 303 303 304 304 302 302 302 303 302 302 302 302 303 303 304
187 186 185 184 183 182 182 181 181 180 181 182 182 183 185 187 185 182 180 178 178 178 178 178 180 183 190 197 203 210 215 219 224 229 234 239 246 251 255 259 263 268 274 282 289 294 298 300 301 303 304 305 305 306 306 307 307 308 308 308 308 306 304 303 303 301 300 301 301 302 303 303 302 301 301 301 302 302 302 302 303 303 304 305 305
187 189 189 187 184 182 181 180 180 180 181 181 181 181 183 185 187 187 184 181 181 182 183 186 190 196 203 209 213 218 224 230 234 238 243 247 251 255 260 266 274 281 287 292 295 297 299 300 300 302 303 303 303 304 304 305 305 305 305 305 305 305 304 303 303 302 302 302 302 303 303 303 302 301 301 302 302 302 302 302 303 303 304 305 305
178 180 180 180 180 180 179 178 179 179 179 180 180 181 183 183 185 187 189 190 191 192 195 199 204 208 213 217 220 222 227 233 238 241 245 250 255 262 270 278 286 291 294 296 298 298 299 300 300 300 301 301 301 302 302 303 303 303 304 304 304 304 304 304 304 304 304 304 305 305 306 306 305 305 305 304 304 304 303 303 303 302 302 302 302
174 175 175 176 177 178 178 178 177 179 180 181 182 183 186 188 189 190 193 198 200 203 207 212 214 215 218 222 225 228 232 237 241 245 250 256 265 275 282 288 292 294 295 298 299 298 298 298 298 298 299 299 300 300 300 300 301 301 302 302 303 303 304 305 305 305 305 306 307 308 308 308 308 308 307 307 306 306 305 305 305 305 304 304 304
175 176 176 177 177 177 178 179 179 181 184 186 188 190 193 196 198 199 202 206 208 210 214 217 219 221 223 226 230 234 238 242 247 252 261 270 279 285 290 292 293 294 295 296 296 295 295 295 296 297 297 297 298 298 298 298 299 300 300 301 302 303 303 304 305 305 306 307 308 308 309 309 309 309 308 309 309 308 308 308 308 308 308 308 308
175 176 178 180 180 181 183 185 186 189 191 194 197 199 201 203 205 207 209 212 213 214 216 220 223 226 229 233 236 240 243 248 254 262 271 279 285 288 290 292 292 293 294 294 294 294 294 294 294 295 294 295 295 295 295 296 297 299 300 301 301 302 303 303 304 305 306 307 308 309 309 309 309 310 310 311 310 309 309 310 311 311 312 312 313
177 178 182 185 188 190 193 195 197 199 200 202 203 204 206 208 210 212 213 214 216 217 220 223 227 230 234 239 243 246 251 257 264 272 278 283 286 288 289 291 291 292 293 293 293 293 293 292 292 292 292 292 293 293 294 295 296 297 298 299 300 301 302 302 303 304 305 306 308 309 308 308 310 312 312 311 311 311 311 312 313 314 315 315 315
184 185 187 191 195 198 200 203 205 206 206 207 207 207 208 210 212 214 216 217 219 221 222 226 230 234 238 243 247 253 259 266 273 279 282 285 287 288 289 290 291 291 291 291 291 291 291 291 291 290 290 291 291 291 292 293 294 295 297 298 299 301 301 301 302 302 304 306 308 308 308 309 311 312 312 311 311 311 312 313 315 316 315 315 315
192 193 194 195 199 201 202 203 205 206 207 208 209 210 211 212 213 215 217 218 221 223 224 227 231 235 240 246 252 259 266 272 277 281 283 285 287 288 288 289 289 289 289 290 290 290 290 289 289 289 289 289 290 290 291 292 292 294 295 296 298 299 300 300 300 301 303 306 307 306 307 309 310 311 311 311 310 310 311 312 314 315 315 315 315
199 199 200 200 201 202 204 205 205 206 207 208 209 211 212 214 215 217 218 220 222 224 226 229 233 237 243 250 257 264 270 274 277 280 282 283 283 284 285 286 287 288 288 288 289 288 288 288 288 288 288 288 289 289 289 290 291 292 294 295 296 297 298 297 297 298 300 303 304 304 305 307 308 309 309 309 309 310 311 312 313 314 314 314 315
201 201 203 205 205 206 207 208 209 210 211 211 212 213 214 215 217 218 218 220 222 225 228 232 236 241 247 252 257 263 268 272 274 276 278 280 281 284 285 287 288 288 287 287 287 287 286 286 286 287 287 287 287 288 288 289 290 291 292 293 294 294 295 294 293 294 297 299 300 302 303 304 305 306 307 307 308 308 310 311 312 313 313 314 314
200 202 205 208 209 209 210 210 212 213 214 214 214 214 214 215 216 216 218 220 223 228 233 237 241 246 249 253 258 263 267 270 273 275 278 281 283 285 286 287 287 287 286 286 286 285 284 284 284 284 285 285 285 286 286 287 288 289 290 290 291 291 290 289 288 291 293 295 297 299 300 301 302 303 303 304 305 306 307 309 310 311 313 313 313
202 205 208 210 210 211 212 211 212 213 213 213 213 213 213 213 214 216 219 223 228 233 238 242 247 252 256 260 264 267 269 272 275 278 281 283 284 285 286 286 286 285 284 284 283 281 281 281 281 281 282 282 282 283 284 284 286 287 287 288 288 287 285 284 284 287 290 292 295 297 298 299 300 300 300 301 302 303 305 306 307 309 311 312 312
205 208 210 212 212 213 214 213 213 212 211 211 212 212 212 214 216 219 224 229 233 239 243 247 252 257 260 264 267 269 271 274 277 279 282 283 284 285 285 284 284 283 282 280 279 278 277 278 278 278 279 279 280 281 282 282 284 284 284 285 285 283 281 280 281 284 288 290 292 294 296 297 298 298 298 299 299 300 301 303 304 306 308 309 310
206 208 210 212 213 214 214 213 211 210 209 209 211 212 214 217 221 225 230 234 239 243 247 251 255 259 261 264 268 270 273 276 278 280 282 283 283 284 283 282 282 281 279 277 277 276 276 276 276 277 277 277 277 278 280 281 282 282 282 282 282 279 277 277 279 282 286 288 290 292 295 295 296 296 296 297 297 297 298 299 301 302 304 305 308
207 208 210 210 210 211 211 209 208 209 209 211 213 215 218 222 226 230 234 239 243 247 251 254 257 260 263 267 270 272 275 277 279 281 282 282 282 282 282 281 280 278 277 276 276 276 276 276 276 276 276 276 276 277 278 279 280 281 281 280 279 277 275 275 277 281 284 286 288 291 292 293 294 294 294 294 294 295 296 297 298 300 301 303 306
208 208 208 208 206 206 206 207 207 209 211 213 216 219 222 226 230 234 239 244 248 252 255 258 261 264 268 270 273 275 277 279 280 281 281 282 282 281 281 280 279 278 277 276 275 275 275 276 277 277 277 277 277 277 278 278 278 279 279 278 276 274 273 274 277 280 282 284 286 288 289 290 291 291 292 292 292 292 294 295 296 297 298 300 303
205 204 204 205 204 203 204 206 207 210 213 215 218 222 226 231 236 240 245 249 253 256 259 263 266 269 272 274 276 278 279 280 281 281 281 282 282 281 280 280 279 278 277 276 276 275 275 276 277 277 278 278 278 278 278 278 277 276 276 274 273 272 272 274 276 279 281 283 284 286 287 288 288 289 289 288 288 289 291 293 294 295 297 299 301
202 201 201 202 203 204 206 207 209 212 215 218 222 227 232 237 242 246 250 254 258 261 265 268 271 273 275 277 278 279 281 281 282 282 282 282 282 281 281 280 280 279 278 278 278 277 277 277 277 278 278 279 280 279 279 278 277 275 273 272 270 270 271 273 275 278 280 281 282 283 284 285 285 286 286 285 285 286 288 291 292 294 297 299 300